This is the latest recevied weather packets stored in our database for station/object SR5MRF. If no packets are shown the sender has not sent any weather packets the latest 10 day(s).
| Time | Temp. | Humidity | Pressure | Rain* | Wind** | Luminosity | Snow |
|---|---|---|---|---|---|---|---|
| 1777205939 | 10° C | 39% | 1016.9 hPa | 0 mm | - | - | - |
| 1777205578 | 10° C | 38% | 1016.9 hPa | 0 mm | - | - | - |
| 1777205339 | 10.56° C | 37% | 1017 hPa | 0 mm | - | - | - |
| 1777205158 | 10.56° C | 37% | 1017 hPa | 0 mm | - | - | - |
| 1777204738 | 10.56° C | 35% | 1016.6 hPa | 0 mm | - | - | - |
| 1777204318 | 11.11° C | 35% | 1016.5 hPa | 0 mm | - | - | - |
| 1777204139 | 11.11° C | 35% | 1016.5 hPa | 0 mm | - | - | - |
| 1777203898 | 11.11° C | 35% | 1016.3 hPa | 0 mm | - | - | - |
| 1777203478 | 11.11° C | 35% | 1016.2 hPa | 0 mm | - | - | - |
| 1777203058 | 11.11° C | 35% | 1016.2 hPa | 0 mm | - | - | - |
| 1777202638 | 12.22° C | 34% | 1016 hPa | 0 mm | - | - | - |
| 1777202339 | 12.22° C | 34% | 1016 hPa | 0 mm | - | - | - |
| 1777202218 | 12.22° C | 35% | 1015.9 hPa | 0 mm | - | - | - |
| 1777201798 | 11.67° C | 35% | 1015.6 hPa | 0 mm | - | - | - |
| 1777201739 | 11.67° C | 35% | 1015.7 hPa | 0 mm | - | - | - |
| 1777201378 | 11.67° C | 35% | 1015.7 hPa | 0 mm | - | - | - |
| 1777201139 | 11.11° C | 36% | 1015.6 hPa | 0 mm | - | - | - |
| 1777200958 | 11.11° C | 36% | 1015.6 hPa | 0 mm | - | - | - |
| 1777200538 | 11.67° C | 37% | 1015.6 hPa | 0 mm | - | - | - |
| 1777200118 | 11.67° C | 37% | 1015.6 hPa | 0 mm | - | - | - |
| 1777199698 | 12.78° C | 37% | 1015.7 hPa | 0 mm | - | - | - |
| 1777199339 | 12.78° C | 39% | 1015.4 hPa | 0 mm | - | - | - |
| 1777199278 | 12.78° C | 39% | 1015.2 hPa | 0 mm | - | - | - |
| 1777198858 | 12.78° C | 39% | 1015.1 hPa | 0 mm | - | - | - |
| 1777198739 | 12.78° C | 40% | 1015.2 hPa | 0 mm | - | - | - |
* Rain latest hour (hover to see other rain measurements)
** Current wind speed in m/s (hover to see current wind gust speed)